Date,TemperatureHighF,TemperatureAvgF,TemperatureLowF,DewpointHighF,DewpointAvgF,DewpointLowF,HumidityHigh,HumidityAvg,HumidityLow,PressureMaxIn,PressureMinIn,WindSpeedMaxMPH,WindSpeedAvgMPH,GustSpeedMaxMPH,PrecipitationSumIn
2013-2-1,47.0,38.8,26.9,27.8,14.0,-1.0,64,39,15,30.32,29.96,16,5,16,0.00
2013-2-2,45.4,33.9,23.0,38.3,19.1,5.7,97,58,20,30.35,30.02,15,2,15,0.09
2013-2-3,54.5,41.7,32.4,38.0,30.4,23.6,97,67,33,30.02,29.85,22,3,22,0.01
2013-2-4,47.6,37.9,27.5,29.9,25.5,21.9,83,63,37,30.11,29.97,6,1,6,0.00
2013-2-5,61.8,47.3,34.7,46.1,37.5,28.8,93,70,50,29.97,29.87,17,2,17,0.00
2013-2-6,69.9,50.7,37.8,44.0,34.4,20.4,100,62,16,30.12,29.95,9,1,9,0.00
2013-2-7,47.6,44.3,41.9,41.9,35.1,25.7,99,73,45,30.16,29.92,0,0,0,0.39
2013-2-8,61.0,47.5,37.8,48.0,40.1,27.1,100,77,52,30.08,29.86,14,2,14,0.00
2013-2-9,61.2,44.5,29.0,30.6,24.9,17.5,85,52,20,30.27,30.06,10,1,10,0.00
2013-2-10,57.5,46.6,38.0,47.0,34.9,24.0,100,66,34,30.37,30.10,12,1,12,0.52
2013-2-11,55.3,51.4,46.8,55.3,51.0,46.8,100,99,93,30.12,29.94,6,1,6,0.18
2013-2-12,58.6,49.7,43.2,50.6,41.5,27.9,100,78,32,30.05,29.84,5,1,5,0.17
2013-2-13,51.0,44.7,36.2,46.7,42.5,34.4,100,92,75,29.86,29.65,15,3,15,0.07
2013-2-14,52.0,39.5,30.1,38.1,33.2,29.9,100,81,48,30.04,29.85,10,4,10,0.00
2013-2-15,62.3,45.9,30.6,39.7,32.8,28.7,100,67,30,30.07,29.90,14,2,14,0.00
2013-2-16,44.6,37.3,28.2,36.2,28.3,15.6,93,71,45,30.03,29.78,14,4,14,0.02
2013-2-17,48.0,34.1,24.7,17.6,10.4,3.7,62,40,17,30.23,30.03,17,5,17,0.00
2013-2-18,55.7,40.1,25.0,27.6,20.9,13.5,81,49,26,30.34,30.16,11,2,11,0.00
2013-2-19,53.1,43.1,35.3,43.8,32.0,15.5,99,69,28,30.17,29.88,16,2,16,0.22
2013-2-20,56.7,41.7,26.3,23.1,17.6,10.9,78,42,18,30.09,30.00,9,2,9,0.00
2013-2-21,60.4,45.0,30.6,36.5,19.9,11.4,63,38,20,30.18,30.01,6,0,6,0.00
2013-2-22,49.2,39.9,38.3,39.7,38.1,30.3,100,94,50,30.19,30.06,0,0,0,0.41
2013-2-23,45.4,41.5,38.5,44.6,41.4,38.5,100,99,96,30.09,29.81,0,0,0,0.29
2013-2-24,67.1,50.7,41.9,47.4,39.8,30.2,100,73,29,29.94,29.82,8,0,8,0.00
2013-2-25,47.4,43.1,35.9,34.1,28.8,25.6,93,58,47,30.08,29.92,13,2,13,0.03
2013-2-26,42.3,37.4,32.9,42.3,36.9,32.1,100,98,83,29.97,29.56,22,3,22,0.97
2013-2-27,56.5,46.3,39.2,37.5,34.6,32.7,82,65,43,29.79,29.66,22,3,22,0.00
2013-2-28,51.3,42.3,31.8,35.2,28.1,23.3,76,58,39,29.88,29.70,19,4,19,0.00